Lapse_Rate
-0.8 1.4 -0.4 1.7 6.3 6.5 6.5 6.5 6.5 6.5 6.5 5.6 5.0 5.9 6.3 5.6 6.5 6.5 2.9 3.2 1.6 0.0 -0.0 1.1 1.5 2.0 2.5 2.6 2.5 2.4 2.4 2.6 2.6 2.5 2.4 2.5 2.5 2.5 2.5 2.5 2.7 3.1 3.4 3.3 3.3 3.2 3.1 3.0 3.1
-0.3 3.0 0.6 1.7 6.5 6.5 6.5 6.5 6.5 6.5 5.7 5.2 5.4 5.7 5.8 6.5 5.7 3.6 3.2 2.3 1.4 -0.3 0.1 0.6 1.5 1.9 2.3 2.6 2.8 2.9 2.8 2.8 2.7 2.5 2.4 2.4 2.6 2.8 2.9 3.0 3.0 3.1 3.1 3.3 3.2 3.0 2.7 2.5 2.8
1.9 2.6 2.7 6.5 6.5 6.5 6.5 6.5 6.5 6.3 5.5 5.0 5.3 4.9 5.6 6.6 5.3 4.6 3.4 1.8 1.3 -0.1 0.3 0.8 1.3 1.9 2.2 2.3 2.3 2.3 2.5 2.6 2.7 2.6 2.6 2.6 2.6 2.5 2.5 2.5 2.5 2.7 3.0 3.2 3.1 2.7 2.3 2.3 2.6
1.9 1.8 2.4 6.5 6.5 6.5 6.5 6.5 6.2 6.3 5.5 4.2 4.3 6.5 5.3 5.9 6.1 4.1 3.2 2.9 1.6 -0.4 0.2 0.5 1.3 1.9 2.1 2.3 2.1 1.7 1.8 2.2 2.3 2.2 2.2 2.2 2.2 2.2 2.2 2.2 2.4 2.7 2.8 3.1 3.0 2.6 2.4 2.3 2.4
0.3 1.2 6.5 6.5 6.5 6.5 6.5 5.5 6.1 6.5 5.6 5.8 5.5 6.3 6.1 5.4 4.4 3.8 3.5 3.9 1.3 0.0 0.3 0.3 0.9 1.5 1.8 1.6 1.4 1.5 1.7 1.9 2.1 2.3 2.5 2.7 2.8 2.9 2.7 2.7 2.8 2.9 3.2 3.5 3.3 3.0 2.7 2.4 2.3
3.0 2.3 6.5 6.5 6.5 6.5 6.2 4.5 6.0 6.0 5.4 5.7 5.0 5.5 5.7 4.6 4.4 4.9 4.9 2.2 1.8 0.7 1.2 1.2 1.2 1.5 1.6 1.5 1.6 1.6 1.9 2.2 2.4 2.6 2.7 2.9 2.9 3.0 3.0 2.9 3.0 3.0 3.1 3.3 3.2 3.1 3.1 2.9 2.7
5.2 6.5 6.5 6.5 6.5 6.5 6.5 4.5 6.0 5.8 5.6 5.9 2.4 6.5 4.5 5.6 4.3 2.8 2.3 1.8 1.2 0.7 1.1 1.4 1.7 1.9 1.9 2.0 1.9 2.0 2.3 2.5 2.8 3.0 3.2 3.2 3.3 3.3 3.4 3.5 3.5 3.5 3.5 3.5 3.4 3.3 3.3 3.3 3.2
2.3 6.0 6.5 6.5 6.5 6.5 6.0 5.3 5.4 5.1 6.0 3.7 3.7 6.1 5.8 4.8 3.3 2.5 2.5 2.6 2.5 2.6 2.3 3.0 2.7 2.3 2.2 2.3 2.7 2.8 2.8 2.9 3.2 3.4 3.6 3.7 3.8 4.0 4.1 4.3 4.2 4.2 4.2 4.1 4.0 3.9 3.8 3.6 3.5
4.7 6.5 6.5 6.5 6.5 6.5 5.3 6.2 4.1 5.7 3.0 4.3 4.9 3.8 5.1 4.3 2.3 0.9 1.2 0.9 1.3 1.6 0.2 2.5 3.5 3.2 2.9 2.9 3.1 2.9 2.3 1.3 1.3 1.8 2.4 2.5 2.9 3.1 4.0 4.6 5.0 5.3 5.0 4.7 4.7 4.6 4.5 4.4 4.1
4.7 6.5 6.5 6.4 6.4 6.5 5.7 5.6 5.4 5.5 5.1 5.7 4.9 4.6 5.3 4.1 1.5 1.6 1.3 2.3 2.7 3.7 2.3 1.5 2.4 3.8 3.3 3.6 2.6 1.8 1.4 0.4 0.3 0.8 1.1 1.4 1.2 1.7 2.1 2.7 3.2 3.2 2.7 3.6 3.6 4.1 5.0 4.8 4.2
5.8 6.5 6.5 5.8 5.9 5.8 5.9 5.0 4.4 5.7 6.5 5.2 5.8 5.3 4.3 1.8 0.8 1.0 1.9 1.6 1.8 1.5 0.9 3.8 1.4 2.0 1.7 0.0 0.8 1.2 -0.4 -1.5 -1.1 -0.5 -0.3 -0.1 1.0 1.0 1.6 1.8 2.0 2.2 1.7 1.5 2.2 3.0 4.1 4.7 4.6
6.4 5.7 6.0 5.2 5.7 6.0 6.3 5.3 5.2 5.5 6.1 4.1 4.1 5.4 1.6 1.2 1.0 1.0 0.3 0.1 -0.0 1.7 1.7 1.3 0.9 0.7 -0.7 -0.7 -0.5 -0.8 -1.4 -1.7 -1.5 -1.1 -0.6 -0.5 -0.2 0.2 0.8 0.3 0.1 0.4 1.3 1.5 0.2 0.1 0.8 2.3 2.3
6.5 6.1 5.3 4.6 4.1 4.9 5.4 5.7 5.9 5.1 5.2 4.8 2.0 1.7 2.1 0.7 0.2 0.6 0.2 1.1 0.4 0.7 0.5 0.9 1.6 -0.3 -1.5 -1.9 -1.0 -1.2 -1.6 -1.5 -0.8 -1.0 -1.4 -0.4 -0.7 -0.3 0.8 1.3 0.2 -0.1 1.3 1.8 2.4 1.8 1.6 2.0 1.5
5.4 5.1 4.6 4.8 4.2 4.3 6.2 5.8 5.8 5.2 4.3 4.0 1.9 1.1 1.4 1.8 1.7 1.1 1.3 1.1 2.2 2.1 1.9 2.0 0.1 -1.1 -1.4 -0.8 -1.4 -1.2 0.1 0.7 1.3 -0.3 -0.1 1.7 0.1 1.8 2.0 1.5 0.3 0.7 1.3 1.6 1.7 1.6 1.4 1.4 1.7
5.5 6.5 6.4 5.5 4.8 6.2 6.0 6.5 6.5 5.6 3.8 6.1 6.8 6.0 4.7 3.6 3.2 3.0 2.9 3.6 4.2 3.0 1.7 0.7 0.3 0.0 0.3 -0.2 -1.2 0.7 -0.2 1.7 1.7 2.2 2.0 2.2 2.4 1.9 2.0 1.8 1.2 1.0 1.2 1.0 0.9 0.5 0.3 -0.1 0.7
6.5 6.5 6.5 6.5 6.4 5.5 5.5 6.5 6.4 4.8 4.5 6.8 7.3 7.2 6.2 5.5 4.4 4.1 3.5 3.1 3.0 2.1 1.8 1.6 1.8 0.3 -0.4 -0.5 1.1 1.4 1.3 1.9 1.7 2.1 2.4 2.9 2.9 2.4 2.2 1.9 1.7 2.1 2.0 1.4 0.6 -0.2 -0.0 -0.2 -0.5
6.5 6.5 6.5 6.5 5.7 6.5 6.5 6.5 6.0 5.1 6.6 6.9 6.9 6.0 5.9 5.0 4.6 3.7 3.3 2.7 2.4 2.2 1.9 1.2 1.0 0.6 0.4 0.7 0.8 0.9 1.6 2.0 2.2 2.6 2.8 2.9 2.8 2.7 2.1 1.6 1.6 2.0 1.6 1.4 1.3 1.4 1.1 1.1 0.7
6.5 6.5 6.5 6.5 6.5 6.5 6.5 6.5 6.4 4.9 6.4 6.8 6.6 6.2 5.8 4.8 4.6 4.2 3.5 3.2 2.7 2.0 1.6 1.4 1.3 1.2 0.9 0.6 1.0 1.2 1.3 1.7 2.5 2.5 2.8 2.9 2.8 2.7 2.3 1.9 1.8 1.9 1.6 1.5 1.8 1.9 2.0 2.2 2.4
6.5 6.5 6.5 6.5 6.5 6.5 6.5 6.5 6.5 6.3 6.3 6.3 6.6 5.6 5.6 3.5 4.0 4.1 3.5 2.2 1.2 1.4 1.9 2.2 2.0 1.8 1.5 1.1 1.1 1.2 1.2 0.9 1.0 2.5 2.9 3.1 3.2 3.1 2.5 2.1 2.0 2.1 1.7 1.9 2.4 2.3 2.5 2.5 2.9
6.5 6.5 6.5 6.5 6.5 6.5 6.5 6.5 6.5 6.4 5.8 5.3 5.7 6.5 5.8 6.2 3.2 2.4 3.0 2.3 2.4 2.0 2.1 2.3 2.5 2.2 2.1 1.7 1.4 1.4 1.1 1.0 1.6 2.4 2.9 3.2 3.6 3.8 3.9 3.0 2.1 2.1 1.5 1.7 2.1 2.3 1.9 2.4 3.7
6.5 6.5 6.5 6.5 6.5 6.5 6.5 6.5 6.5 6.4 5.7 6.3 5.6 5.1 4.6 3.8 3.4 3.3 2.6 2.1 1.4 1.4 1.4 1.9 1.9 2.0 2.1 2.3 1.9 1.8 2.0 2.2 2.0 1.9 1.6 3.1 3.9 4.1 4.3 4.5 3.9 3.1 2.7 2.3 2.4 2.7 3.3 3.0 3.3
6.5 6.5 6.5 6.5 6.5 6.5 6.5 6.5 6.5 6.5 6.5 6.5 5.7 4.0 4.3 4.2 4.1 3.4 3.2 1.7 1.2 0.8 0.1 0.4 0.7 0.9 1.6 1.8 1.9 2.6 2.6 3.0 2.2 1.8 1.7 2.9 4.3 4.5 5.1 5.0 4.3 3.5 3.2 2.7 2.4 3.5 3.4 3.6 3.7
6.5 6.5 6.5 6.5 6.5 6.5 6.5 6.5 6.5 6.5 6.5 6.5 5.6 5.1 4.3 4.5 4.1 4.1 3.1 2.4 1.7 0.6 0.3 0.4 0.3 0.7 1.3 1.6 1.6 1.2 2.0 1.7 1.9 2.2 2.6 2.5 3.9 5.4 5.8 5.8 5.2 3.9 3.4 3.0 2.7 2.9 3.0 3.6 4.0
6.5 6.5 6.5 6.5 6.5 6.5 6.5 6.5 6.5 6.5 6.5 6.5 6.4 5.7 5.3 4.3 4.3 4.3 3.5 3.1 2.6 1.1 0.3 -0.0 0.6 1.3 2.0 1.7 2.0 2.0 2.5 3.1 3.2 3.4 3.3 3.2 3.7 4.7 5.6 6.0 5.4 5.1 4.3 3.6 3.4 3.4 3.4 3.5 4.0
6.5 6.5 6.5 6.5 6.5 6.5 6.5 6.5 6.5 6.5 6.5 6.5 6.1 5.8 6.3 4.5 3.4 3.3 2.5 2.6 2.0 2.1 0.8 0.7 1.6 2.2 2.4 2.3 2.7 3.1 4.1 4.5 4.7 4.3 3.9 4.1 4.0 3.9 4.6 5.8 5.2 5.0 5.5 5.2 5.0 4.3 4.2 4.3 4.6
6.5 6.5 6.5 6.5 6.5 6.5 6.5 6.5 6.5 6.5 6.0 6.0 6.4 5.9 5.6 3.8 3.2 2.3 1.9 1.1 1.2 1.1 2.4 2.6 3.0 3.0 2.6 4.4 5.0 5.4 5.8 5.9 5.7 5.3 5.2 4.9 4.8 4.7 5.9 5.2 5.0 5.7 5.7 5.7 5.7 4.7 4.8 4.5 4.5
6.5 6.5 6.5 6.5 6.5 6.5 6.5 6.5 6.5 6.5 6.4 6.1 6.1 6.1 5.2 3.7 3.2 2.4 1.7 1.0 0.5 0.5 0.9 2.3 3.5 3.8 5.3 5.7 6.1 5.6 5.4 5.0 4.3 4.2 4.2 3.8 4.3 5.5 5.7 6.0 6.2 6.5 6.7 6.4 6.1 5.9 5.6 5.3 4.7
6.5 6.5 6.5 6.5 6.5 6.5 6.5 6.5 6.5 6.5 6.5 6.5 6.3 6.2 5.2 4.2 3.5 2.6 2.0 1.5 1.9 1.9 2.1 2.0 2.2 3.0 4.4 4.9 4.9 4.4 4.1 4.0 4.0 3.6 3.2 3.1 3.7 4.3 4.8 5.0 5.1 5.3 5.8 6.0 6.4 6.4 6.7 7.3 7.4
6.5 6.5 6.5 6.5 6.5 6.5 6.5 6.5 6.5 6.5 6.5 6.5 6.2 6.0 5.1 4.2 3.3 2.7 2.4 2.5 2.0 1.9 2.0 2.2 2.5 2.9 2.9 3.6 3.3 3.1 2.4 2.2 2.2 2.5 2.4 2.4 3.4 3.8 4.1 4.7 4.8 5.0 5.3 5.6 5.7 6.2 7.1 7.4 7.3
6.5 6.5 6.5 6.5 6.5 6.5 6.5 6.5 6.5 6.5 5.6 6.0 6.4 5.9 5.1 4.1 3.5 3.0 2.9 2.6 2.1 2.0 2.0 1.7 1.7 2.2 1.7 1.8 1.6 1.5 1.7 2.0 1.9 2.1 2.6 3.6 3.2 4.2 4.9 5.3 5.5 5.9 6.2 6.4 6.6 7.1 7.2 7.4 7.0
Wind_Speed
11 10 3 4 4 5 5 5 3 5 3 3 6 6 9 4 2 4 4 7 17 11 15 14 21 18 16 14 14 15 16 14 13 12 12 13 14 14 15 15 14 12 11 10 9 9 9 8 7
5 3 4 2 4 4 6 4 7 10 7 10 7 3 6 3 6 7 6 10 13 14 13 16 19 20 20 18 15 14 13 13 12 12 11 12 12 11 12 12 11 10 9 8 8 7 7 6 5
4 2 3 4 3 2 3 4 5 17 15 6 4 5 3 3 4 8 10 14 13 10 13 13 19 19 19 19 18 17 16 14 12 11 10 9 9 9 9 9 8 8 7 6 7 6 6 4 3
3 4 4 4 3 6 5 5 4 5 5 8 9 6 2 7 11 9 16 15 12 10 15 18 21 21 21 20 18 18 17 14 13 13 12 12 11 11 11 9 8 7 6 6 6 5 5 4 2
4 3 4 2 5 5 3 6 2 5 5 5 1 5 2 5 13 20 17 11 13 9 12 12 18 18 17 17 17 17 16 15 14 12 9 8 6 5 5 5 5 4 3 2 3 3 2 2 3
4 3 4 3 4 6 4 6 7 5 3 2 6 5 2 5 15 13 13 11 11 11 12 10 10 10 10 13 14 15 14 11 10 8 8 6 5 5 5 5 5 4 4 3 3 1 1 3 4
5 4 3 3 4 5 5 8 4 6 7 3 8 5 3 4 15 20 18 16 15 18 15 13 10 9 8 8 10 10 9 9 7 4 4 4 2 3 4 5 5 5 5 4 3 3 3 4 6
4 4 2 3 3 2 7 6 2 8 1 5 3 5 6 13 21 21 18 15 13 9 11 8 6 7 7 7 9 11 12 11 10 7 5 4 3 4 5 7 7 7 6 6 6 6 6 7 8
2 3 1 3 2 4 3 7 9 2 8 4 5 5 13 22 24 21 16 14 12 9 11 11 4 1 4 7 9 13 17 19 17 14 13 12 11 13 11 12 12 8 9 9 9 9 9 10 10
4 3 5 4 3 2 5 4 6 5 6 4 5 12 20 20 19 19 16 13 14 8 7 6 6 6 5 8 10 14 15 16 16 16 15 13 13 16 18 20 23 15 11 11 12 11 12 11 10
3 5 3 5 3 3 2 8 3 4 4 6 13 15 10 14 15 16 13 14 13 10 8 11 5 3 8 8 9 8 10 11 14 15 14 12 12 11 12 11 14 14 16 13 14 15 11 7 9
4 5 3 6 5 1 2 2 8 3 2 9 12 17 11 14 12 16 13 9 7 3 5 11 4 2 12 8 9 9 9 7 8 12 14 10 5 9 7 7 10 10 9 9 9 9 9 10 12
2 5 10 6 8 4 5 5 5 6 3 6 17 15 15 13 11 5 7 5 6 12 9 8 5 5 8 10 11 12 10 9 10 8 15 15 9 9 6 6 6 11 8 5 6 7 7 9 11
5 8 9 7 10 6 4 5 2 5 17 22 21 15 12 15 11 8 7 6 8 10 9 6 7 7 10 10 14 11 14 11 6 12 18 9 19 6 4 4 10 9 7 7 6 5 5 4 6
6 8 10 9 7 5 0 6 6 2 21 22 22 18 15 10 9 7 5 6 9 7 7 8 6 8 8 10 15 11 15 13 14 12 19 16 11 12 9 8 9 10 11 11 11 10 8 4 5
4 4 4 9 2 4 8 7 10 7 22 19 21 18 16 10 8 7 7 8 6 7 8 6 7 6 9 11 11 11 13 13 14 14 16 15 16 17 12 7 7 12 12 11 7 3 5 5 5
5 2 3 9 7 4 2 4 6 6 22 18 17 15 15 14 11 8 7 8 7 7 7 7 6 7 8 11 12 13 14 13 11 11 11 14 15 14 11 8 8 11 8 6 4 3 3 4 5
2 3 4 3 6 7 8 6 7 4 18 19 17 16 16 13 6 6 8 7 7 7 7 8 6 8 8 9 10 9 10 9 9 9 9 10 11 10 10 8 9 11 4 3 3 3 4 3 5
5 1 3 4 5 5 2 5 4 9 20 18 16 16 16 19 12 5 5 7 8 7 8 7 7 4 4 3 4 3 3 2 2 6 9 9 10 10 10 8 9 9 4 4 5 3 4 2 6
1 2 6 6 6 3 2 4 3 2 9 13 17 15 14 11 16 12 6 6 6 6 7 7 7 6 3 2 2 2 2 2 2 4 9 10 11 11 11 9 7 8 4 6 6 5 4 3 5
3 2 4 6 7 2 4 4 8 6 10 11 10 11 11 12 12 10 8 7 7 7 8 7 7 7 4 5 4 4 4 3 3 4 3 9 13 12 9 9 8 8 5 4 4 5 6 4 3
3 3 4 4 3 1 5 1 12 11 15 13 8 8 5 6 6 7 7 7 8 8 7 8 7 8 6 6 5 5 2 2 1 2 3 8 13 12 10 7 7 6 6 5 3 3 2 3 4
6 3 1 2 3 2 2 5 2 5 13 8 8 6 5 3 6 6 8 8 7 8 8 7 7 7 6 7 7 5 4 2 1 2 5 5 10 10 10 7 7 7 7 6 5 5 5 2 2
1 2 4 3 3 2 3 6 3 2 7 1 4 8 9 9 9 11 7 7 5 5 7 7 7 5 6 6 5 7 6 3 2 3 4 4 4 7 7 7 6 8 7 5 5 5 6 5 4
5 5 3 3 3 4 1 6 3 5 8 8 6 8 6 7 11 11 11 10 7 6 5 5 6 6 5 6 5 4 3 1 2 4 3 5 4 3 4 5 6 5 10 11 9 6 6 5 4
1 6 4 2 0 2 5 4 3 2 12 9 9 8 6 9 9 9 10 13 11 9 7 6 6 6 6 4 4 4 4 3 5 8 7 8 8 6 13 13 13 15 16 15 14 4 5 6 5
2 2 3 4 3 3 2 2 4 3 5 9 8 10 7 8 9 11 12 13 13 15 14 11 7 8 7 8 9 11 10 11 9 10 7 6 9 11 14 16 14 16 15 15 13 7 9 8 7
3 1 3 3 3 3 2 3 4 8 7 8 11 11 9 8 11 10 11 12 10 10 10 14 13 11 10 11 9 9 10 10 8 8 9 9 10 14 14 14 15 15 17 17 14 10 10 11 8
3 2 4 3 4 4 1 5 5 15 12 10 12 10 9 10 10 10 10 8 8 9 10 9 10 11 10 10 9 9 8 7 6 7 7 7 10 12 10 10 10 10 10 12 10 11 11 10 11
3 1 3 4 3 1 4 5 4 8 9 14 13 11 10 11 10 10 8 8 9 8 8 8 7 9 7 6 6 6 6 6 6 7 6 10 6 11 11 10 9 9 9 9 10 12 7 12 11
Wind_Direction
303 316 104 42 46 55 297 280 280 178 50 218 144 147 146 138 139 178 355 118 124 144 147 152 143 141 135 136 132 125 123 117 110 101 100 98 96 99 102 104 104 100 99 93 88 82 79 81 85
324 349 45 81 77 44 297 279 114 125 141 139 111 76 49 81 101 125 105 133 132 139 143 142 143 143 141 137 129 120 111 110 113 117 119 116 114 104 98 101 103 101 96 92 88 85 87 95 103
323 25 72 80 90 111 280 281 233 154 172 140 71 32 102 99 112 141 124 134 141 124 127 137 141 142 140 139 137 135 132 133 131 126 124 124 123 125 122 118 116 112 108 110 111 110 108 109 114
26 12 29 69 325 267 217 246 239 123 11 42 136 78 17 246 155 147 128 138 132 116 124 145 143 147 148 147 144 142 141 143 146 147 144 151 155 156 155 148 141 139 142 140 131 128 135 145 161
39 60 53 16 269 254 251 251 130 41 112 80 311 138 99 0 116 128 132 141 121 104 109 131 144 148 147 148 145 143 145 147 150 149 149 148 151 163 161 157 152 151 141 135 135 137 148 179 209
38 94 44 323 269 277 281 315 84 66 39 120 67 109 68 355 123 112 100 73 66 76 66 83 112 125 136 143 143 140 141 141 143 144 140 147 161 173 193 192 197 191 191 191 186 198 283 280 284
121 90 225 272 275 337 322 310 41 109 143 124 145 116 188 1 91 87 83 77 70 64 49 40 60 76 102 111 116 112 105 106 108 102 105 125 170 217 227 229 235 235 234 235 241 245 254 276 292
109 104 2 332 345 329 317 352 299 85 34 121 193 167 157 104 100 93 85 86 86 83 96 61 47 74 72 88 100 98 93 84 67 52 48 33 353 313 293 282 270 269 271 268 259 263 271 276 280
103 60 315 267 353 274 334 13 330 108 130 232 179 112 102 118 103 92 88 79 88 74 53 34 349 350 109 98 78 79 71 58 59 50 36 29 19 6 339 316 289 287 292 288 288 285 280 281 283
113 120 223 205 245 247 329 42 311 18 62 52 52 71 115 115 115 116 120 112 97 114 67 99 341 209 170 97 77 75 76 64 54 49 46 43 46 49 44 32 33 31 7 356 350 311 295 286 277
293 185 235 293 221 173 353 325 353 24 32 165 148 129 118 110 112 117 116 128 143 142 191 184 127 121 80 77 91 81 80 93 84 70 67 56 44 58 56 48 43 27 15 16 6 9 18 341 307
333 301 351 311 349 273 207 222 313 162 181 182 165 142 125 121 130 136 137 137 170 308 79 97 47 76 103 128 103 101 86 94 98 104 94 71 63 49 40 77 77 55 22 2 5 353 354 8 18
27 329 321 299 298 285 290 269 244 279 221 115 89 85 114 106 102 89 75 75 41 75 73 79 84 36 53 64 56 43 43 40 27 67 85 89 70 36 8 10 85 63 20 0 346 347 358 12 14
304 305 296 303 301 297 291 275 88 277 88 89 95 92 97 117 123 105 71 63 67 79 85 85 65 60 72 71 70 58 49 49 29 43 52 45 85 57 16 328 37 48 33 18 9 8 5 3 350
291 313 327 303 264 249 158 303 249 120 104 99 102 105 101 90 102 103 115 106 110 94 101 96 93 92 93 92 90 83 88 56 53 31 49 42 49 75 54 18 18 20 19 19 9 4 6 355 338
326 40 347 293 328 279 123 281 280 168 112 106 108 109 104 95 89 75 87 95 100 112 97 98 93 85 80 76 82 82 79 72 60 54 55 48 44 48 39 25 16 16 18 16 8 1 349 348 341
360 266 285 334 37 5 95 262 320 32 114 110 101 99 99 93 82 79 76 86 85 91 101 95 92 85 79 80 87 84 82 73 71 64 58 49 46 45 45 33 19 22 23 28 11 356 356 331 339
296 348 326 295 317 19 343 287 353 42 112 127 125 118 111 100 66 97 93 89 88 83 81 82 75 84 82 85 91 82 79 72 68 59 51 46 42 40 34 26 20 16 5 8 9 3 351 323 345
225 8 292 275 310 33 33 1 18 113 118 135 134 134 130 116 132 68 87 95 83 65 84 81 91 91 109 100 99 76 81 68 44 51 37 31 23 23 21 15 9 6 11 8 356 331 339 329 340
235 284 295 284 297 165 9 349 127 113 151 138 133 124 116 135 119 136 166 128 113 130 117 112 113 118 120 119 124 117 136 108 93 19 15 17 8 0 6 8 353 351 358 11 9 11 338 324 4
271 217 269 269 323 311 127 41 360 29 59 70 68 101 123 134 134 152 158 152 141 154 160 149 138 117 104 109 92 64 60 40 15 1 350 351 356 352 340 341 340 345 2 0 357 358 2 327 332
237 259 259 288 41 306 74 259 26 42 55 58 46 53 107 145 143 152 160 156 169 185 172 144 138 127 111 105 91 90 96 89 308 299 315 335 337 325 328 320 327 329 340 347 332 337 327 347 325
230 332 296 264 321 65 360 86 287 19 47 31 44 61 124 155 139 169 183 177 187 172 161 144 135 115 116 104 111 115 108 131 237 319 336 333 330 315 296 310 327 333 330 318 317 315 310 293 294
213 340 345 16 95 350 189 126 244 210 144 239 65 62 33 72 74 70 55 158 166 161 141 143 130 108 123 119 123 120 120 138 46 343 337 333 318 308 324 347 348 331 320 310 303 299 295 287 281
61 62 343 356 31 224 112 68 195 178 175 176 154 79 68 74 67 63 57 47 61 123 102 114 125 139 151 123 120 129 124 84 341 347 338 329 330 325 326 326 321 315 312 307 300 293 283 274 266
134 158 160 187 248 275 7 120 238 284 184 168 147 119 112 82 73 64 60 57 45 29 121 108 154 168 84 108 98 47 36 31 30 26 24 22 12 360 1 354 348 342 334 324 317 300 286 277 263
324 70 184 129 354 103 167 34 331 74 137 166 131 118 124 98 89 77 64 60 55 56 61 61 75 75 57 50 54 53 48 53 46 38 35 26 16 10 359 9 0 352 350 349 344 336 318 313 298
141 177 61 12 161 207 216 196 214 210 202 146 138 147 131 117 95 83 75 71 61 57 59 58 58 61 59 62 59 57 51 49 44 37 30 23 16 12 8 6 5 360 355 352 347 339 330 326 320
15 26 57 105 129 156 197 251 219 202 194 170 159 145 135 119 110 102 89 85 83 71 63 65 63 63 59 61 59 55 48 41 41 40 28 19 10 7 4 4 357 348 343 342 339 332 322 331 338
108 87 123 119 205 115 145 270 281 206 188 140 150 149 139 124 118 111 107 102 86 82 74 67 60 66 62 62 59 51 47 41 39 29 16 8 357 357 355 350 342 333 337 337 332 322 327 332 333